Location: Newark
(45.2500°N, 7.5833°E)
Time: 19:13:04
(UTC+00:00)

N. Korean satellite - Pass Details

Date: 18 December 2019
Orbit: 454 x 507 km, 97.2° (Epoch: 28 January)

Event Time Altitude Azimuth Distance (km) Brightness Sun altitude
Rises 06:17:06 0° 358° (N) 2,521 9.9 -8.0°
Reaches altitude 10° 06:19:30 10° 342° (NNW) 1,629 8.8 -7.6°
Maximum altitude 06:22:09 21° 292° (WNW) 1,111 7.8 -7.2°
Drops below altitude 10° 06:24:45 10° 243° (WSW) 1,603 8.9 -6.8°
Sets 06:27:07 0° 226° (SW) 2,466 10.0 -6.4°
